Regional Weather Roundup
Issued by NWS Sioux Falls, SD

Home | Current Version | Previous Version | Graphics & Text | Print | Product List | Glossary Off
Versions: 1 2 3 4 5 6 7 8 9 10 11 12 13 14 15 16 17 18 19 20 21 22 23 24 25 26 27 28 29 30 31 32 33 34 35 36 37 38 39 40 41 42 43 44 45 46 47 48 49 50

000
ASUS43 KFSD 220002
RWRFSD

WEATHER ROUNDUP FOR SE SOUTH DAKOTA/SW MINNESOTA/NW IOWA
NATIONAL WEATHER SERVICE SIOUX FALLS SD
700 PM CDT TUE MAR 21 2017

NOTE: "FAIR" INDICATES FEW OR NO CLOUDS BELOW 12,000 FEET WITH NO
SIGNIFICANT WEATHER AND OR OBSTRUCTIONS TO VISIBILITY.


SDZ038>040-050-052>070-220100-
SOUTHEAST SOUTH DAKOTA

CITY           SKY/WX    TMP DP  RH WIND       PRES   REMARKS
BROOKINGS      CLEAR     29  16  58 NE9       30.43R WCI  20
CHAMBERLAIN    CLOUDY    37  19  49 NE7       30.42R
6HR MIN TEMP:  33; 6HR MAX TEMP:  39;

HURON          CLOUDY    33  19  56 E7        30.46R WCI  27
6HR MIN TEMP:  32; 6HR MAX TEMP:  37;

MADISON        FAIR      30  19  64 NE14      30.42R WCI  20
MITCHELL       CLOUDY    37  19  48 NE12      30.45R
6HR MIN TEMP:  37; 6HR MAX TEMP:  41;

SIOUX FALLS    MOCLDY    35  21  56 NE14      30.42R WCI  26
6HR MIN TEMP:  35; 6HR MAX TEMP:  41;

WINNER         CLOUDY    37  22  54 NE8       30.39F
YANKTON        CLOUDY    39  18  41 NE12      30.41R
$$

MNZ071-072-080-081-089-090-097-098-220100-
SOUTHWEST MINNESOTA

CITY           SKY/WX    TMP DP  RH WIND       PRES   REMARKS
JACKSON        CLEAR     34  21  60 N9        30.40S WCI  26
LUVERNE        PTCLDY    32  19  59 NE8G16    30.42R WCI  25
MARSHALL       CLEAR     31  18  58 N13       30.46R WCI  21
6HR MIN TEMP:  28; 6HR MAX TEMP:  34;

MONTEVIDEO     PTCLDY    34  16  47 N12       30.48R WCI  25
PIPESTONE      CLEAR     32  14  47 NE12      30.42R WCI  23
REDWOOD FALLS  CLEAR     35  12  38 N9        30.44S WCI  28
TRACY          CLEAR     32  20  61 N10       30.43S WCI  24
WINDOM         CLEAR     34  18  51 N12G18    30.41S WCI  25
WORTHINGTON    CLEAR     33  20  58 N13       30.41R WCI  24
$$

IAZ001>003-012>014-020>022-031-032-NEZ013-014-SDZ071-220100-
NORTHWEST IOWA

CITY           SKY/WX    TMP DP  RH WIND       PRES   REMARKS
CHEROKEE       CLEAR     38  22  53 NE9       30.39R
DENISON        PTCLDY    43  21  42 NE16      30.34R
ESTHERVILLE    CLEAR     35  21  56 N13       30.39R WCI  26
LE MARS        PTCLDY    39  23  52 NE10      30.41R
ORANGE CITY    CLEAR     37  25  60 NE7       30.40R
SHELDON        CLEAR     36  27  69 NE14      30.39R
SIOUX CITY     MOCLDY    43  21  41 NE15      30.39R
6HR MIN TEMP:  36; 6HR MAX TEMP:  47;

SPENCER        CLEAR     37  21  52 N13       30.40S
6HR MIN TEMP:  37; 6HR MAX TEMP:  41;

STORM LAKE     CLEAR     37  23  56 NE20      30.37R
$$

ABBREVIATIONS USED IN REMARKS
   TC - TEMPERATURE IN CELSIUS
  WCI - WIND CHILL INDEX
   HX - HEAT INDEX
  VSB - VISIBILITY





USA.gov is the U.S. government's official web portal to all federal, state and local government web resources and services.